#timestamp,LO_Frequency,Hit,StdDev 
1459569615.1,286046995.0,N
1459569635.9,286046996.8,N
1459569655.7,286046995.0,N
1459569675.5,286046993.7,N
1459569695.4,286046993.6,N
1459569715.2,286046992.1,N
1459569735.0,286046991.8,N
1459569735.9,286046991.8,N
1459569755.8,286046990.1,N
1459569775.6,286046990.8,N
1459569795.4,286046993.1,N
1459569815.3,286046993.1,N
1459569835.1,286046991.6,N
1459569836.0,286046991.6,N
1459569855.8,286046990.4,N
1459569875.7,286046990.1,N
1459569895.5,286046990.2,N
1459569915.3,286046990.2,N
1459569935.1,286046989.8,N
1459569955.9,286046987.3,N
1459569975.7,286046993.2,N
1459569995.5,286046992.3,N
1459570015.4,286046990.9,N
1459570035.2,286046990.3,N
1459570055.0,286046993.1,N
1459570055.9,286046993.1,N
1459570075.8,286046991.8,N
1459570095.6,286046990.5,Y
1459570115.4,286046998.9,P
1459570135.3,286047002.4,N
1459570155.1,286047000.2,N
1459570175.8,286047000.4,N
1459570195.7,286047000.2,N
1459570215.5,286047002.5,N
1459570235.3,286047002.8,N
1459570255.2,286047001.5,N
1459570275.9,286047001.5,N
1459570295.7,286047001.9,N
1459570315.6,286047001.1,N
1459570335.4,286047002.7,N
1459570355.2,286046999.7,N
1459570375.0,286046998.4,N
1459570375.9,286046998.4,N
1459570395.8,286046996.7,N
1459570415.6,286046998.2,N
1459570435.4,286046998.4,N
1459570455.3,286046998.7,N
1459570475.1,286046997.0,N
1459570495.8,286047000.7,N
1459570515.7,286047001.0,N
1459570535.5,286047000.0,N
1459570555.3,286047002.3,N
1459570575.2,286047000.0,N
1459570595.9,286047002.6,N
1459570615.7,286047002.5,N
1459570635.6,286047004.3,N
1459570655.4,286047000.6,N
1459570675.2,286047000.1,N
1459570695.0,286047000.1,N
1459570695.9,286047000.1,N
1459570715.8,286047002.4,N
1459570735.6,286047000.9,N
1459570755.4,286046999.5,N
1459570775.3,286046998.1,N
1459570795.1,286047002.7,N
1459570815.8,286046999.8,N
1459570835.7,286047001.9,N
1459570855.5,286047000.0,N
1459570875.3,286047001.0,N
1459570895.2,286046996.5,N
1459570915.9,286046999.3,N
1459570935.7,286047000.6,N
1459570955.6,286046998.4,N
1459570975.4,286046996.6,N
1459570995.2,286046998.1,N
1459571015.0,286046997.8,N
1459571016.0,286046997.8,N
1459571035.8,286046998.0,N
1459571055.6,286046997.5,N
1459571075.4,286046996.8,N
1459571095.3,286046996.9,N
1459571115.1,286046998.9,N
1459571135.8,286047001.2,N
1459571155.7,286047000.5,N
1459571175.5,286047001.9,N
1459571195.3,286047001.6,N
1459571215.2,286047001.1,N
1459571235.9,286047001.9,N
1459571255.7,286047005.1,N
1459571275.6,286047006.8,Y
1459571295.4,286047008.3,P
1459571315.2,286047007.2,N
1459571335.1,286047006.4,N
1459571336.0,286047006.4,N
1459571355.8,286047004.6,N
1459571375.6,286047009.2,Y
1459571395.5,286046998.6,P
1459571415.3,286046998.9,N
1459571435.1,286046997.3,N
1459571455.9,286046998.0,N
1459571475.7,286047001.2,N
1459571495.5,286046998.7,N
1459571515.4,286047002.6,N
1459571535.2,286047006.0,N
1459571555.0,286047000.1,N
1459571555.9,286047000.1,N
1459571575.8,286047002.6,N
1459571595.6,286046999.0,N
1459571615.4,286046998.3,N
1459571635.2,286047002.3,N
1459571655.1,286047000.2,N
1459571656.0,286047000.2,N
1459571675.8,286046999.4,N
1459571695.6,286046998.7,N
1459571715.5,286047000.4,N
1459571735.3,286047000.0,N
1459571755.1,286047004.4,N
1459571775.9,286047001.8,N
1459571795.7,286047005.7,N
1459571815.5,286047004.6,N
1459571835.4,286047002.0,N
1459571855.2,286047002.4,N
1459571875.0,286047000.1,N
1459571875.9,286047000.1,N
1459571895.8,286046998.8,N
1459571915.6,286046997.0,N
1459571935.4,286046996.5,N
1459571955.2,286047001.0,N
1459571975.1,286046997.4,N
1459571976.0,286046997.4,N
1459571995.8,286046995.8,N
1459572015.6,286046999.1,N
1459572035.5,286046997.3,N
1459572055.3,286046998.8,N
1459572075.1,286047002.4,N
1459572095.9,286047001.8,N
1459572115.7,286047002.5,N
1459572135.5,286047002.6,N
1459572155.4,286046998.4,N
1459572175.2,286046996.8,N
1459572195.0,286046998.7,N
1459572195.9,286046998.7,N
1459572215.8,286047000.7,N
1459572235.6,286047002.5,N
1459572255.4,286047002.7,N
1459572275.3,286047000.8,N
1459572295.1,286047000.1,N
1459572296.0,286047000.1,N
1459572315.8,286047000.1,N
1459572335.7,286047002.5,N
1459572355.5,286047001.6,N
1459572375.3,286047004.7,N
1459572395.1,286047003.5,N
1459572415.9,286047003.7,N
1459572435.9,286047001.9,N
1459572455.7,286047001.6,N
1459572475.5,286047003.1,N
1459572495.4,286046999.7,N
1459572515.2,286047001.8,N
1459572535.0,286047004.3,N
1459572535.9,286047004.3,N
1459572555.8,286046998.3,N
1459572575.6,286046998.6,N
1459572595.4,286046998.9,N
1459572615.3,286046995.2,N
1459572635.1,286046995.8,N
1459572655.8,286046994.3,N
1459572675.7,286046993.3,N
1459572695.5,286046993.9,N
1459572715.3,286046994.7,N
1459572735.2,286046992.9,N
1459572755.9,286046988.5,Y
1459572775.7,286046991.5,P
1459572795.6,286046989.8,N
1459572815.4,286046984.5,P
1459572835.2,286046983.7,N
1459572855.1,286046985.5,N
1459572856.0,286046985.5,N
1459572875.8,286046989.7,N
1459572895.6,286046988.5,N
1459572915.4,286046987.8,N
1459572935.3,286046986.7,Y
1459572955.1,286046997.8,P
1459572975.9,286046995.3,N
1459572995.7,286046996.1,N
1459573015.5,286046995.7,N
1459573035.3,286046994.4,N
1459573055.2,286046991.9,N
1459573075.9,286046990.1,Y
1459573095.7,286046999.2,P
1459573115.6,286046994.2,N
1459573135.4,286046994.0,N
1459573155.2,286046997.6,N
1459573175.1,286046997.8,N
1459573176.0,286046997.8,N
1459573195.8,286046994.3,N
